Regional Weather Roundup
Issued by NWS Kansas City/Pleasant Hill, MO

Home | Current Version | Previous Version | Graphics & Text | Print | Product List | Glossary Off
Versions: 1 2 3 4 5 6 7 8 9 10 11 12 13 14 15 16 17 18 19 20 21 22 23 24 25 26 27

000
ASUS43 KEAX 221110
RWREAX

WEATHER ROUNDUP FOR EASTERN KANSAS AND NORTHWEST MISSOURI
NATIONAL WEATHER SERVICE KANSAS CITY/PLEASANT HILL MO
500 AM CST WED NOV 22 2017

KSZ040-057-103>105-MOZ028-029-037-043-221200-
...KANSAS CITY METROPOLITAN AREA...

CITY           SKY/WX    TMP DP  RH WIND       PRES   REMARKS
K.C. INTL      CLOUDY    16  12  84 CALM      30.41S
K.C. DOWNTOWN  CLOUDY    23  14  68 N6        30.43S WCI  16
LEES SUMMIT    CLOUDY    22  14  71 N6        30.41F WCI  14
OLATHE - IXD   CLOUDY    18  14  84 N5        30.41F WCI  11
OLATHE - OJC   CLOUDY    21  14  74 N6        30.40S WCI  13
LAWRENCE       CLOUDY    19  14  81 CALM      30.42F

$$

MOZ001>008-011>017-020>025-030>033-038>040-044>046-053-054-221200-
...NORTHERN AND CENTRAL MISSOURI...

CITY           SKY/WX    TMP DP  RH WIND       PRES   REMARKS
ST. JOSEPH     CLOUDY    17  12  80 CALM      30.43S
MOSBY          CLOUDY    21  14  73 CALM      30.43S
WARRENSBURG    CLOUDY    23  16  74 NW5       30.42S WCI  17
WHITEMAN AFB   CLEAR     21  14  74 N5        30.37R WCI  15
CLINTON        CLOUDY    23  16  74 MISG      30.42R
SEDALIA        PTCLDY    22  19  89 NW5       30.42R WCI  16
WARSAW         NOT AVBL
CHILLICOTHE      N/A     19  13  77 CALM      30.44R
KIRKSVILLE     CLOUDY    18  14  84 NW3       30.39S

$$

MOZ041-047>049-056>058-063>065-088>090-097-221200-
...EASTERN AND SOUTHERN MISSOURI...

CITY           SKY/WX    TMP DP  RH WIND       PRES   REMARKS
ST. LOUIS INTL MOCLDY    26  19  74 NW8       30.38R WCI  18
SPIRIT OF STL  CLOUDY    26  19  74 NW7       30.39R WCI  18
COLUMBIA       CLOUDY    22  15  75 N6        30.38F WCI  14
JEFFERSON CITY PTCLDY    26  16  65 NW3       30.41S
ROLLA          CLOUDY    22  17  81 N6        30.37R WCI  14
OSAGE BEACH    CLOUDY    25  17  72 CALM      30.40S
SPRINGFIELD    PTCLDY    23  17  78 N6        30.36S WCI  16
BRANSON        CLOUDY    25  18  74 CALM      30.37S
JOPLIN         CLOUDY    23  18  81 N5        30.41S WCI  17
WEST PLAINS    PTCLDY    27  17  66 N8        30.34S WCI  19

$$

IAZ060-094-KSZ022-034>040-054-083-096-NEZ052-066-093-221200-
...KANSAS...SOUTHEAST NEBRASKA AND IOWA...

CITY           SKY/WX    TMP DP  RH WIND       PRES   REMARKS
TOPEKA         CLOUDY    19  14  81 CALM      30.43S
MANHATTAN      PTCLDY    16  11  80 CALM      30.43S
EMPORIA        CLOUDY    19  12  74 N5        30.42R WCI  12
CHANUTE        CLOUDY    23  15  71 CALM      30.42F
WICHITA        CLOUDY    25  15  66 N6        30.42S WCI  18
OMAHA          CLOUDY    16   9  74 CALM      30.40S
LINCOLN        CLOUDY    15  10  80 MISG      30.41F
FALLS CITY     CLOUDY    15  10  80 W5        30.42S WCI   8
DES MOINES     CLOUDY    19  11  70 NW5       30.40R WCI  12

$$





USA.gov is the U.S. government's official web portal to all federal, state and local government web resources and services.